Regional Weather Roundup
Issued by NWS

Home | Current Version | Previous Version | Text Only | Print | Product List | Glossary Off
Versions: 1 2 3 4 5 6 7 8 9 10 11 12 13 14 15 16 17 18 19 20 21 22 23 24 25 26 27 28 29 30 31 32 33 34 35 36 37 38 39 40 41 42 43 44 45 46 47 48 49 50

288
ASUS43 KBIS 161302
RWRND

NORTH DAKOTA REGIONAL WEATHER ROUNDUP
NATIONAL WEATHER SERVICE BISMARCK ND
800 AM CDT WED AUG 16 2017

NOTE: "FAIR" INDICATES FEW OR NO CLOUDS BELOW 12,000 FEET WITH NO
SIGNIFICANT WEATHER AND/OR OBSTRUCTIONS TO VISIBILITY.


NDZ001>003-009>011-017-161400-
NORTHWEST NORTH DAKOTA

CITY           SKY/WX    TMP DP  RH WIND       PRES   REMARKS
WILLISTON      CLOUDY    56  55  97 CALM      29.95S
MINOT          FOG       60  59  96 W3        29.92R VSB 1/4
MINOT AFB      FOG       55  55 100 NW8       29.90S VSB 1/2
$$

NDZ018>021-031>035-040>046-161400-
SOUTHWEST NORTH DAKOTA

CITY           SKY/WX    TMP DP  RH WIND       PRES   REMARKS
BISMARCK       CLOUDY    61  59  93 N12       29.91R
DICKINSON      FOG       54  54 100 NW8       29.94S VSB<1/4
GARRISON         N/A     57  57 100 NW7       29.92R
HETTINGER ARPT FOG       54  53  97 W3        29.97S VSB 1/4
$$

NDZ004>008-012>016-024-026-027-054-161400-
NORTHEAST NORTH DAKOTA

CITY           SKY/WX    TMP DP  RH WIND       PRES   REMARKS
GRAND FORKS    CLOUDY    64  63  96 E9        29.85F
GRND FRKS AFB  LGT RAIN  63  63 100 E6        29.86S
DEVILS LAKE    CLOUDY    62  61  96 NE9       29.88R
$$

NDZ022-023-025-028>030-036>039-047>053-161400-
SOUTHEAST NORTH DAKOTA

CITY           SKY/WX    TMP DP  RH WIND       PRES   REMARKS
FARGO          CLOUDY    64  64 100 SE7       29.83F
JAMESTOWN      FOG       64  63  96 E5        29.83R VSB 1
$$





USA.gov is the U.S. government's official web portal to all federal, state and local government web resources and services.